Regional Weather Roundup
Issued by NWS Glasgow, MT

Home | Current Version | Previous Version | Text Only | Print | Product List | Glossary On
Versions: 1 2 3 4 5 6 7 8 9 10 11 12 13 14 15 16 17 18 19 20 21 22 23 24 25 26 27 28 29 30 31 32 33 34 35 36 37 38 39 40 41 42 43 44 45 46 47 48 49 50
000
ASUS45 KGGW 211715
RWRGGW
HOURLY REGIONAL WEATHER ROUNDUP FOR NORTHEAST MONTANA
NATIONAL WEATHER SERVICE GLASGOW MONTANA
1000 AM MST WED FEB 21 2018

NOTE: "FAIR" INDICATES FEW OR NO CLOUDS BELOW 12,000 FEET WITH NO
SIGNIFICANT WEATHER AND/OR OBSTRUCTIONS TO VISISBILITY.

NORTHEAST MONTANA


CITY           SKY/WX    TMP DP  RH WIND       PRES   REMARKS
GLASGOW        CLOUDY   -11 -17  75 E14       30.25R WCI -33
PLENTYWOOD       N/A     -6 -13  71 SE2         N/A
WOLF POINT     PTSUNNY  -10 -14  82 CALM      30.31F
JORDAN           N/A    -17 -21  82 CALM      30.20F
SIDNEY         SUNNY     -4 -12  68 S9        30.35
GLENDIVE       SUNNY     -3 -12  65 S10       30.30R WCI -20
MALTA            N/A     -8 -13  78 E2          N/A
SCOBEY           N/A    -10 -20  61 CALM      30.19S

FORT PECK REPORTS


CITY           SKY/WX    TMP DP  RH WIND       PRES   REMARKS
FORT PECK        N/A      1  -8  66 SE8         N/A
THE PINES        N/A      1 -10  60 SE3         N/A

SOUTHEAST MONTANA


CITY           SKY/WX    TMP DP  RH WIND       PRES   REMARKS
BILLINGS       MOSUNNY    0  -8  69 S10       30.13S WCI -16
MILES CITY     SUNNY     -9 -15  75 S13       30.26S WCI -29
BAKER          SUNNY     -9 -14  78 E5        30.26S
LIVINGSTON     CLOUDY    10   0  63 NW20G25   30.02F WCI  -9

CENTRAL MONTANA


CITY           SKY/WX    TMP DP  RH WIND       PRES   REMARKS
HAVRE          MOSUNNY   -9 -16  71 E3        30.16S
LEWISTOWN      SUNNY     -1  -7  75 E5        30.03F
GREAT FALLS    SUNNY      5  -4  66 SW16      30.03F WCI -14
CUT BANK       SUNNY     -7 -12  79 S3        29.97F
HELENA         SUNNY     -2 -10  69 N3        30.12F
BUTTE          MOSUNNY   -4 -11  72 CALM      30.00S
BOZEMAN        PTSUNNY   -4 -11  72 N7        30.09S

WESTERN MONTANA


CITY           SKY/WX    TMP DP  RH WIND       PRES   REMARKS
MISSOULA       CLOUDY     7  -1  70 SE6       30.20S
KALISPELL      NOT AVBL

NORTH DAKOTA


CITY           SKY/WX    TMP DP  RH WIND       PRES   REMARKS
WILLISTON      SUNNY     -2 -11  65 SW6       30.33F
DICKINSON      SUNNY      5  -7  57 SW10      30.28S WCI -10
MINOT          SUNNY      4  -6  63 W22       30.33R WCI -18
BISMARCK       SUNNY      5  -8  55 SW9       30.43R

SOUTHERN SASKATCHEWAN


CITY           SKY/WX    TMP DP  RH WIND       PRES   REMARKS
REGINA         NOT AVBL
ESTEVAN        NOT AVBL
SWIFT CURRENT  NOT AVBL




USA.gov is the U.S. government's official web portal to all federal, state and local government web resources and services.